Location: Ceske Budejovice
(48.9830°N, 14.4670°E)
Time: 04:23:18
(UTC+02:00)

LO-87 - Visible Passes

Search period start: 17 July 2019 00:00
Search period end: 27 July 2019 00:00
Orbit: 475 x 493 km, 97.4° (Epoch: 16 July)

Date Brightness Start Highest point End Pass type
(mag) Time Alt. Az. Time Alt. Az. Time Alt. Az.
17 Jul ? 01:08:16 12° W 01:08:56 12° W 01:10:29 10° WNW visible
17 Jul ? 23:09:11 22° ESE 23:10:42 31° ENE 23:13:56 10° N visible
18 Jul ? 00:43:32 21° WSW 00:44:10 22° W 00:47:04 10° NW visible
18 Jul ? 22:44:26 13° E 22:46:20 18° ENE 22:48:51 10° NNE visible
19 Jul ? 00:18:47 36° SW 00:19:30 41° W 00:22:58 10° NNW visible
19 Jul ? 22:21:20 10° ENE 22:22:04 10° ENE 22:22:47 10° NE visible
19 Jul ? 23:54:03 50° S 23:54:54 82° WSW 23:58:33 10° NNW visible
20 Jul ? 23:29:19 36° SE 23:30:24 51° ENE 23:33:56 10° N visible
21 Jul ? 01:03:40 14° W 01:04:08 14° W 01:06:04 10° WNW visible
21 Jul ? 23:04:34 21° ESE 23:05:58 27° ENE 23:09:05 10° N visible
22 Jul ? 00:38:55 24° WSW 00:39:23 25° W 00:42:26 10° NW visible
22 Jul ? 22:39:50 12° E 22:41:38 16° ENE 22:43:53 10° NNE visible
23 Jul ? 00:14:11 43° SW 00:14:43 47° W 00:18:14 10° NNW visible
23 Jul ? 23:49:26 57° SSE 23:50:08 87° E 23:53:47 10° NNW visible
24 Jul ? 23:24:42 35° ESE 23:25:38 44° ENE 23:29:06 10° N visible
25 Jul ? 00:59:03 15° W 00:59:18 15° W 01:01:32 10° NW visible
25 Jul ? 22:59:58 20° E 23:01:14 24° ENE 23:04:12 10° NNE visible
26 Jul ? 00:34:19 27° WSW 00:34:34 28° W 00:37:43 10° NW visible
26 Jul ? 22:35:13 11° E 22:36:53 14° ENE 22:38:53 10° NNE visible
